Location: Unspecified
(0.0000°N, 0.0000°E)
Time: 13:14:13
(UTC+00:00)

Vanguard 2 - Pass Details

Date: 19 September 2019
Orbit: 554 x 2937 km, 32.9° (Epoch: 13 October)

Event Time Altitude Azimuth Distance (km) Brightness Sun altitude
Rises 00:07:09 0° 238° (WSW) 6,676 - -86.3°
Reaches altitude 10° 00:11:29 10° 239° (WSW) 5,743 - -85.3°
Maximum altitude 00:29:36 78° 323° (NW) 2,745 - -81.0°
Drops below altitude 10° 00:43:23 10° 49° (NE) 4,522 - -77.6°
Exits shadow 00:46:11 - 50° (NE) 5,199 11.9 -76.9°
Sets 00:46:23 0° 50° (NE) 5,250 11.9 -76.8°
